Location: Ebendorf
(52.1827°N, 11.5706°E)
Time: 10:14:34
(UTC+00:00)

Cosmos 2251 Rocket - Pass Details

Date: 15 May 2021
Orbit: 765 x 791 km, 74.0° (Epoch: 20 June)

Event Time Altitude Azimuth Distance (km) Brightness Sun altitude
Rises 00:06:20 0° 334° (NNW) 3,249 7.6 -17.9°
Reaches altitude 10° 00:08:44 10° 335° (NNW) 2,317 6.7 -17.8°
Maximum altitude 00:14:00 86° 66° (ENE) 775 3.5 -17.6°
Enters shadow 00:17:37 21° 154° (SSE) 1,689 4.9 -17.4°
